Wind_Speed
22 21 20 19 18 17 16 15 15 13 13 12 11 10 10 9 9 9 9 9 9 10 11 11 12 13 13 13 13 13 14 15 16 17 18 18 19 20 21 21 22 23 23
23 22 21 20 19 18 17 16 15 14 13 12 12 11 10 10 10 10 10 10 10 11 11 12 12 13 13 13 14 14 15 16 17 18 18 19 20 21 21 22 23 24 25
24 23 22 21 20 19 18 16 15 15 14 13 12 12 11 11 11 10 11 11 11 12 12 13 13 13 14 15 15 16 17 17 18 19 19 20 21 22 23 23 24 25 26
24 23 22 21 20 20 18 17 16 15 14 13 13 12 12 11 11 11 11 11 12 13 13 13 14 14 15 16 17 17 18 19 19 20 21 22 22 23 24 25 26 26 27
23 23 22 21 21 20 19 18 16 15 14 13 13 12 12 12 12 12 12 13 13 13 14 14 15 15 16 17 17 18 19 19 20 21 22 23 24 25 25 26 27 27 28
24 23 22 21 20 19 18 18 17 16 15 14 13 13 13 13 13 13 13 14 14 14 15 15 15 16 17 17 18 18 19 20 21 22 23 24 25 26 26 27 28 28 29
24 23 22 21 20 19 19 18 17 16 15 15 14 14 14 14 14 14 14 14 14 14 15 15 16 17 17 18 19 20 21 22 23 24 25 25 26 26 27 28 29 29 30
25 24 23 22 21 20 19 18 18 17 16 16 15 15 15 15 14 15 15 14 14 15 15 16 17 17 18 19 21 22 23 23 24 25 26 26 27 28 29 29 30 31 31
25 24 23 22 21 20 20 19 19 18 17 16 16 16 15 15 15 15 15 15 15 16 16 17 18 19 20 21 22 23 24 25 26 26 27 28 29 29 30 30 31 32 33
24 24 23 23 22 21 20 19 19 18 18 17 17 16 16 16 15 15 15 16 16 16 17 18 19 20 21 23 23 24 25 26 27 28 28 29 30 30 31 32 32 33 34
23 23 23 22 22 21 20 19 18 18 18 17 17 17 16 16 16 16 16 17 17 18 18 19 21 22 23 24 24 25 26 27 28 29 29 30 31 32 32 33 33 34 35
24 24 23 22 21 20 19 19 18 18 18 18 18 17 17 17 17 17 17 18 19 19 20 21 23 24 24 25 26 26 27 28 29 30 30 31 32 32 33 34 34 35 36
25 24 24 23 21 20 19 19 19 18 18 18 18 18 18 18 18 18 19 20 20 21 22 23 24 25 26 26 27 28 29 29 30 31 32 32 33 34 34 35 35 36 37
25 24 24 23 22 21 20 20 19 19 19 19 19 19 19 19 19 19 20 21 22 23 24 25 25 26 27 27 28 29 30 30 31 32 33 33 34 34 35 35 36 37 37
27 26 25 24 24 23 22 21 20 19 19 19 19 19 19 20 20 21 22 22 23 24 25 26 26 27 28 28 29 30 31 31 32 33 33 34 34 35 35 36 37 37 38
28 27 26 25 24 24 23 22 21 20 20 20 20 20 20 21 21 22 23 23 24 25 26 26 27 27 28 29 30 31 32 32 33 33 34 34 35 35 36 37 37 38 38
30 29 27 26 25 24 24 24 23 22 21 21 21 21 21 22 23 23 24 24 25 26 27 27 28 28 29 30 31 32 32 33 34 34 35 35 36 36 36 37 37 38 39
32 30 29 27 26 26 25 24 24 23 23 23 23 23 23 23 24 24 25 25 26 27 27 28 29 29 30 31 32 33 33 34 35 35 35 36 36 37 37 37 38 39 39
34 32 31 29 28 27 27 26 25 24 24 24 24 24 24 24 25 26 26 27 27 28 29 29 30 30 31 32 33 33 34 35 35 35 36 36 37 37 38 38 39 39 39
36 34 33 32 30 29 28 28 27 26 26 26 26 26 25 26 26 27 27 28 29 29 30 31 31 32 32 33 33 34 35 35 35 36 36 37 38 38 38 39 39 40 40
38 36 34 33 32 31 30 29 29 28 28 28 27 27 27 28 28 28 29 29 30 31 31 32 32 33 33 34 34 35 35 36 36 36 37 38 38 38 39 39 40 40 40
39 38 36 35 34 33 32 31 31 31 30 29 29 29 29 29 29 29 30 31 31 32 32 33 33 33 34 34 35 36 36 36 36 37 38 38 38 39 40 40 41 41 41
42 40 38 37 36 35 34 34 33 32 31 31 31 31 31 31 31 31 32 32 33 33 33 34 34 34 34 35 35 36 36 36 37 38 38 39 39 40 41 41 41 41 42
43 41 40 39 38 37 37 36 35 33 32 32 33 33 33 33 32 33 33 33 34 34 34 34 35 35 35 35 36 36 37 37 37 38 38 39 40 41 41 42 42 42 42
45 43 41 40 40 39 38 37 36 35 34 34 35 35 34 34 34 34 34 34 34 35 35 35 36 36 36 36 36 37 37 38 38 39 39 40 41 42 42 43 43 43 43
47 45 43 42 41 40 39 39 37 36 35 36 36 36 35 35 35 35 35 35 35 35 36 36 36 36 36 37 37 37 37 38 39 39 40 40 41 42 43 44 44 44 45
Wind_Direction
222 221 221 222 224 225 226 226 229 231 234 236 240 242 246 250 256 262 268 273 277 280 283 286 288 290 291 291 291 291 291 291 291 292 291 291 290 290 290 290 290 289 289
223 223 222 223 224 225 226 228 231 234 237 241 244 245 249 254 259 264 268 273 278 283 286 288 289 290 292 293 294 295 295 295 295 294 293 293 292 292 291 290 290 289 289
223 223 222 223 224 226 228 230 232 235 239 242 244 246 251 256 261 266 271 275 279 283 285 287 288 291 293 294 295 297 297 297 297 296 295 294 294 293 292 291 290 290 289
223 223 222 223 224 226 228 230 232 235 238 241 243 246 251 256 262 267 271 276 281 284 286 287 289 291 293 294 296 297 297 297 297 297 297 296 295 294 293 292 291 291 290
222 223 223 223 224 226 228 230 232 235 238 240 243 248 254 259 263 269 274 279 282 285 288 289 291 293 295 296 298 298 299 299 299 299 299 298 297 296 294 293 293 292 291
221 222 222 223 224 225 227 230 233 235 238 241 245 251 256 262 267 272 276 279 282 286 288 290 292 294 295 297 298 299 299 299 299 299 299 299 298 298 296 295 294 293 292
221 221 222 223 225 227 230 232 236 237 239 243 247 252 257 263 268 271 275 278 282 286 289 291 293 295 296 297 298 298 299 299 300 300 300 299 299 298 297 296 295 294 294
220 220 222 224 226 229 232 236 238 239 241 243 247 252 258 262 267 271 274 277 281 286 289 291 293 295 296 297 298 298 299 300 300 301 300 300 300 299 298 297 296 295 294
220 222 224 225 227 230 233 237 238 239 240 243 248 253 258 262 267 270 273 277 282 287 290 292 294 295 297 298 299 299 300 301 301 301 301 300 300 300 299 298 297 296 296
220 222 224 225 226 229 233 235 236 237 241 244 249 253 257 262 266 270 275 279 283 287 289 292 294 296 297 298 299 300 301 301 302 302 301 301 301 300 300 300 299 298 297
219 220 222 224 225 228 230 232 234 237 242 246 250 254 258 261 265 271 277 280 283 286 289 292 294 297 298 299 300 300 301 301 302 302 302 302 301 301 300 300 299 299 298
218 218 219 221 224 226 229 232 235 239 243 247 252 255 258 262 267 272 277 280 283 287 289 292 295 297 298 299 300 301 301 302 302 302 303 303 303 302 301 301 301 300 299
216 217 219 221 223 226 230 233 237 241 245 249 253 257 260 265 269 274 278 281 284 288 290 292 295 297 298 299 300 301 302 302 303 303 303 303 303 303 302 302 302 301 301
216 217 220 222 225 228 231 236 240 244 247 251 255 258 262 266 271 276 279 282 286 288 291 293 295 297 298 299 301 302 302 303 303 303 304 304 304 303 303 304 303 303 302
217 219 221 223 227 230 234 239 242 246 249 253 256 259 263 268 273 277 280 283 287 289 291 293 295 296 298 300 301 302 303 303 304 305 305 305 304 304 304 304 304 303 302
219 221 223 225 229 232 236 239 242 246 250 254 257 261 266 270 274 278 281 285 288 289 291 293 295 296 298 300 302 303 303 304 305 306 305 305 305 305 304 304 304 304 303
222 223 225 228 231 234 237 240 243 248 252 255 259 263 267 271 275 279 283 286 288 289 291 293 296 297 299 300 302 303 303 304 305 305 305 306 305 305 305 305 305 304 304
224 226 228 230 233 236 238 241 245 249 253 256 260 264 269 273 277 280 283 286 287 289 291 294 296 298 299 300 302 303 303 304 305 305 305 306 305 305 305 305 305 305 304
226 229 230 232 235 238 240 243 247 251 255 258 261 265 269 273 277 280 283 285 287 289 291 294 296 297 298 300 301 302 303 303 304 304 305 305 305 305 305 305 305 305 304
228 230 232 234 237 240 242 245 249 252 256 259 262 265 270 273 277 279 282 284 286 289 291 293 295 297 298 299 301 301 302 302 303 304 304 305 304 305 305 305 305 305 304
230 232 234 236 239 242 244 247 250 253 256 259 262 266 270 273 276 279 281 283 286 289 291 293 295 296 297 298 300 301 301 302 302 303 304 304 305 305 306 306 306 305 305
231 233 235 238 240 243 245 248 251 253 256 259 263 266 270 274 276 278 280 283 285 288 290 292 294 295 296 297 299 300 301 302 302 303 304 304 305 306 306 306 305 305 305
232 234 236 238 240 243 246 249 252 254 257 260 263 266 270 272 275 278 280 282 285 287 289 291 293 294 295 297 298 300 300 301 301 303 303 304 305 305 305 305 305 305 305
232 234 236 238 241 244 247 250 252 254 256 259 262 265 268 272 275 277 279 281 284 286 288 290 292 293 295 296 298 299 300 301 301 302 303 303 304 305 305 305 305 305 305
232 234 237 239 241 244 247 249 251 254 256 259 262 265 268 272 274 276 278 281 283 285 287 289 291 292 294 295 297 298 299 300 301 302 303 304 304 305 305 306 305 306 306
233 235 237 239 241 244 246 249 252 254 256 259 262 265 268 271 273 275 277 280 282 284 286 288 290 291 292 295 296 297 298 299 301 301 302 303 304 305 305 305 306 306 306
Height
5869 5871 5872 5874 5875 5877 5878 5878 5879 5880 5881 5882 5882 5882 5882 5883 5883 5883 5882 5882 5881 5881 5880 5879 5878 5877 5877 5876 5875 5874 5873 5872 5870 5869 5868 5866 5865 5863 5862 5860 5859 5858 5856
5866 5868 5870 5872 5873 5874 5876 5877 5878 5878 5879 5880 5880 5881 5881 5881 5881 5881 5880 5880 5879 5879 5878 5877 5876 5875 5874 5873 5872 5871 5870 5869 5868 5866 5865 5863 5862 5860 5859 5857 5856 5854 5852
5863 5865 5867 5869 5871 5872 5873 5875 5876 5876 5877 5878 5878 5879 5879 5879 5879 5879 5879 5878 5877 5877 5876 5875 5874 5873 5872 5871 5870 5869 5867 5866 5864 5863 5862 5860 5859 5857 5855 5854 5852 5850 5848
5860 5862 5864 5866 5868 5869 5871 5872 5873 5874 5875 5876 5876 5877 5877 5877 5877 5877 5876 5876 5875 5874 5873 5873 5872 5871 5870 5868 5867 5866 5864 5863 5861 5860 5858 5857 5855 5853 5851 5850 5848 5846 5844
5857 5859 5861 5863 5865 5867 5868 5870 5871 5872 5873 5873 5874 5875 5875 5875 5875 5874 5874 5874 5873 5872 5871 5870 5869 5868 5867 5866 5864 5863 5861 5860 5858 5856 5855 5853 5851 5849 5847 5845 5843 5841 5839
5854 5856 5858 5860 5862 5864 5865 5867 5868 5869 5870 5871 5872 5872 5872 5872 5872 5872 5871 5871 5870 5869 5868 5867 5866 5865 5864 5863 5861 5860 5858 5856 5855 5853 5851 5849 5847 5844 5842 5840 5838 5836 5834
5850 5853 5855 5857 5859 5861 5862 5864 5865 5866 5867 5868 5869 5869 5870 5870 5869 5869 5869 5868 5867 5866 5865 5864 5863 5862 5861 5859 5858 5856 5854 5853 5851 5849 5846 5844 5842 5840 5838 5835 5833 5831 5828
5847 5849 5851 5853 5856 5858 5859 5861 5862 5863 5864 5865 5866 5866 5867 5867 5866 5866 5866 5865 5864 5863 5862 5861 5860 5859 5857 5856 5854 5853 5851 5849 5846 5844 5842 5840 5837 5835 5832 5830 5827 5825 5823
5843 5845 5848 5850 5852 5854 5856 5857 5859 5860 5861 5862 5863 5863 5864 5864 5863 5863 5863 5862 5861 5860 5859 5858 5857 5855 5854 5852 5850 5848 5846 5844 5842 5840 5837 5835 5832 5830 5827 5824 5822 5819 5817
5839 5842 5844 5846 5848 5850 5852 5854 5855 5857 5858 5859 5859 5860 5860 5860 5860 5860 5859 5859 5858 5857 5856 5854 5853 5852 5850 5848 5846 5844 5842 5840 5837 5835 5832 5830 5827 5824 5821 5819 5816 5813 5810
5836 5838 5840 5843 5845 5847 5848 5850 5852 5853 5854 5855 5856 5856 5856 5857 5856 5856 5856 5855 5854 5853 5852 5851 5849 5847 5846 5844 5841 5839 5837 5835 5832 5830 5827 5824 5821 5819 5816 5813 5810 5807 5804
5832 5834 5836 5839 5841 5843 5845 5846 5848 5849 5850 5851 5852 5852 5853 5853 5853 5852 5852 5851 5850 5849 5848 5846 5845 5843 5841 5839 5837 5834 5832 5830 5827 5824 5822 5819 5816 5813 5810 5807 5803 5800 5797
5827 5830 5833 5835 5837 5839 5841 5843 5844 5846 5847 5847 5848 5849 5849 5849 5849 5848 5847 5847 5846 5845 5843 5842 5840 5838 5836 5834 5832 5829 5827 5824 5822 5819 5816 5813 5810 5807 5804 5800 5797 5794 5790
5823 5826 5829 5831 5833 5835 5837 5839 5841 5842 5843 5843 5844 5844 5845 5845 5844 5844 5843 5842 5841 5840 5839 5837 5835 5833 5831 5829 5827 5824 5822 5819 5816 5813 5810 5807 5804 5801 5797 5794 5790 5787 5783
5819 5822 5824 5827 5829 5831 5833 5835 5836 5837 5838 5839 5840 5840 5840 5840 5840 5840 5839 5838 5837 5835 5834 5832 5830 5828 5826 5824 5821 5819 5816 5813 5810 5807 5804 5801 5797 5794 5791 5787 5784 5780 5776
5814 5817 5819 5822 5824 5827 5829 5830 5832 5833 5834 5835 5835 5836 5836 5836 5835 5835 5834 5833 5832 5830 5829 5827 5825 5823 5821 5818 5816 5813 5810 5807 5804 5801 5798 5794 5791 5787 5784 5780 5777 5773 5769
5808 5811 5814 5817 5819 5822 5823 5825 5827 5828 5829 5830 5830 5831 5831 5831 5830 5830 5829 5828 5826 5825 5823 5821 5819 5817 5815 5812 5810 5807 5804 5801 5798 5795 5791 5788 5784 5781 5777 5773 5769 5766 5762
5802 5806 5809 5811 5814 5816 5818 5820 5822 5823 5824 5825 5825 5826 5826 5826 5825 5824 5823 5822 5821 5819 5817 5816 5814 5812 5809 5807 5804 5801 5798 5795 5792 5788 5785 5781 5777 5774 5770 5766 5762 5758 5754
5796 5800 5803 5806 5808 5810 5813 5814 5816 5817 5819 5819 5820 5820 5820 5820 5819 5818 5817 5816 5815 5813 5812 5810 5808 5806 5803 5801 5798 5795 5792 5788 5785 5782 5778 5774 5771 5767 5763 5759 5755 5751 5747
5789 5793 5796 5799 5802 5804 5806 5809 5810 5812 5813 5813 5814 5814 5814 5814 5813 5812 5811 5810 5809 5807 5806 5804 5802 5799 5797 5794 5791 5788 5785 5782 5778 5775 5771 5768 5764 5760 5756 5752 5748 5743 5739
5782 5786 5790 5793 5796 5798 5800 5803 5804 5805 5806 5807 5807 5808 5808 5807 5807 5806 5805 5804 5803 5801 5799 5797 5795 5793 5790 5787 5785 5782 5778 5775 5772 5768 5764 5761 5757 5753 5749 5744 5740 5736 5731
5775 5779 5782 5786 5788 5791 5794 5796 5797 5798 5799 5800 5801 5801 5801 5801 5800 5800 5799 5797 5796 5795 5793 5791 5788 5786 5784 5781 5778 5775 5772 5769 5765 5761 5757 5753 5749 5745 5741 5737 5732 5728 5723
5767 5771 5775 5778 5781 5784 5786 5788 5789 5791 5792 5794 5794 5794 5794 5794 5793 5793 5792 5790 5789 5788 5786 5784 5782 5779 5777 5774 5771 5768 5765 5762 5758 5754 5750 5746 5742 5738 5733 5729 5724 5720 5715
5759 5763 5766 5770 5773 5775 5778 5780 5782 5784 5786 5786 5786 5786 5786 5786 5786 5785 5785 5783 5782 5780 5779 5777 5774 5772 5770 5767 5764 5760 5757 5754 5751 5747 5743 5739 5734 5730 5725 5721 5716 5712 5707
5749 5753 5757 5761 5764 5767 5770 5772 5774 5776 5778 5778 5779 5779 5779 5779 5779 5778 5777 5776 5775 5773 5771 5769 5767 5765 5762 5760 5757 5753 5750 5746 5743 5739 5736 5731 5727 5722 5717 5712 5708 5703 5698
5740 5744 5748 5752 5755 5758 5761 5764 5766 5768 5769 5770 5771 5771 5771 5771 5771 5770 5770 5769 5767 5766 5764 5762 5760 5757 5755 5752 5749 5746 5742 5739 5735 5731 5727 5723 5719 5714 5709 5704 5699 5694 5689